When you browse on this site, cookies collect data to enhance your experience and personalize the content and advertising you see.
Visit our Privacy Policy to learn more. By continuing to use the site, you agree to this use of cookies and data.
  • In Sweden
  • List of Countries
  • For 7 days
  • Water Temperature
  • Weather Map
  • Weather Widgets
  • user-avatar
    Login

    Hourly Weather Ghanzi

    Today, 1 April, Wednesday

    Time Temperature Precipitation Wind Pressure Humidity
    00:00 +23°C° 0 mm 5 mps 714 mmHg 28%
    01:00 +22°C° 0 mm 5 mps 714 mmHg 29%
    02:00 +21°C° 0 mm 5 mps 714 mmHg 30%
    03:00 +20°C° 0 mm 4 mps 715 mmHg 30%
    04:00 +19°C° 0 mm 4 mps 715 mmHg 30%
    05:00 +19°C° 0 mm 4 mps 715 mmHg 28%
    06:00 +20°C° 0 mm 5 mps 716 mmHg 27%
    07:00 +20°C° 0 mm 6 mps 716 mmHg 24%
    08:00 +23°C° 0 mm 6 mps 717 mmHg 21%
    09:00 +26°C° 0 mm 6 mps 717 mmHg 18%
    10:00 +29°C° 0 mm 6 mps 717 mmHg 15%
    11:00 +30°C° 0 mm 5 mps 716 mmHg 14%
    12:00 +33°C° 0 mm 4 mps 716 mmHg 13%
    13:00 +35°C° 0 mm 3 mps 715 mmHg 12%
    14:00 +36°C° 0 mm 3 mps 714 mmHg 11%
    15:00 +36°C° 0 mm 4 mps 714 mmHg 11%
    16:00 +37°C° 0 mm 4 mps 713 mmHg 11%
    17:00 +35°C° 0 mm 4 mps 713 mmHg 13%
    18:00 +33°C° 0 mm 4 mps 713 mmHg 14%
    19:00 +30°C° 0 mm 4 mps 712 mmHg 16%
    20:00 +29°C° 0 mm 4 mps 713 mmHg 16%
    21:00 +28°C° 0 mm 5 mps 713 mmHg 17%
    22:00 +26°C° 0 mm 5 mps 714 mmHg 18%
    23:00 +26°C° 0 mm 5 mps 713 mmHg 18%

    Tomorrow, 2 April, Thursday

    Time Temperature Precipitation Wind Pressure Humidity
    00:00 +25°C° 0 mm 5 mps 713 mmHg 18%
    01:00 +23°C° 0 mm 5 mps 713 mmHg 18%
    02:00 +22°C° 0 mm 5 mps 713 mmHg 19%
    03:00 +22°C° 0 mm 5 mps 713 mmHg 19%
    04:00 +21°C° 0 mm 5 mps 713 mmHg 20%
    05:00 +22°C° 0 mm 5 mps 713 mmHg 20%
    06:00 +22°C° 0 mm 6 mps 714 mmHg 20%
    07:00 +22°C° 0 mm 6 mps 714 mmHg 20%
    08:00 +26°C° 0 mm 6 mps 714 mmHg 17%
    09:00 +28°C° 0 mm 5 mps 715 mmHg 15%
    10:00 +30°C° 0 mm 5 mps 715 mmHg 13%
    11:00 +33°C° 0 mm 3 mps 714 mmHg 12%
    12:00 +35°C° 0 mm 2 mps 714 mmHg 11%
    13:00 +35°C° 0 mm 1 mps 713 mmHg 10%
    14:00 +36°C° 0 mm 1 mps 712 mmHg 10%
    15:00 +37°C° 0 mm 2 mps 712 mmHg 10%
    16:00 +38°C° 0 mm 2 mps 711 mmHg 9%
    17:00 +36°C° 0 mm 3 mps 711 mmHg 11%
    18:00 +34°C° 0 mm 3 mps 711 mmHg 12%
    19:00 +32°C° 0 mm 4 mps 711 mmHg 13%
    20:00 +30°C° 0 mm 4 mps 712 mmHg 14%
    21:00 +30°C° 0 mm 4 mps 712 mmHg 15%
    22:00 +29°C° 0 mm 4 mps 712 mmHg 15%
    23:00 +28°C° 0 mm 4 mps 712 mmHg 16%

    Day after tomorrow, 3 April, Friday

    Time Temperature Precipitation Wind Pressure Humidity
    00:00 +27°C° 0 mm 4 mps 712 mmHg 17%
    01:00 +26°C° 0 mm 5 mps 712 mmHg 18%
    02:00 +25°C° 0 mm 4 mps 712 mmHg 18%
    03:00 +25°C° 0 mm 4 mps 711 mmHg 19%
    04:00 +23°C° 0 mm 4 mps 711 mmHg 19%
    05:00 +25°C° 0 mm 4 mps 712 mmHg 18%
    06:00 +25°C° 0 mm 4 mps 712 mmHg 17%
    07:00 +26°C° 0 mm 3 mps 713 mmHg 16%
    08:00 +28°C° 0 mm 3 mps 713 mmHg 14%
    09:00 +31°C° 0 mm 3 mps 713 mmHg 12%
    10:00 +35°C° 0 mm 3 mps 714 mmHg 10%
    11:00 +36°C° 0 mm 2 mps 713 mmHg 9%
    12:00 +37°C° 0 mm 1 mps 712 mmHg 9%
    13:00 +37°C° 0 mm 0 mps 712 mmHg 8%
    14:00 +37°C° 0 mm 0 mps 711 mmHg 8%
    15:00 +40°C° 0 mm 1 mps 711 mmHg 7%
    16:00 +41°C° 0 mm 1 mps 710 mmHg 7%
    17:00 +38°C° 0 mm 2 mps 710 mmHg 8%
    18:00 +36°C° 0 mm 2 mps 710 mmHg 9%
    19:00 +34°C° 0 mm 3 mps 710 mmHg 10%
    20:00 +33°C° 0 mm 3 mps 710 mmHg 11%
    21:00 +33°C° 0 mm 3 mps 710 mmHg 11%
    22:00 +31°C° 0 mm 3 mps 711 mmHg 11%
    23:00 +30°C° 0 mm 3 mps 710 mmHg 12%

    4 April, Saturday

    Time Temperature Precipitation Wind Pressure Humidity
    00:00 +30°C° 0 mm 3 mps 710 mmHg 12%
    01:00 +29°C° 0 mm 2 mps 710 mmHg 13%
    02:00 +28°C° 0 mm 2 mps 710 mmHg 14%
    03:00 +27°C° 0 mm 2 mps 710 mmHg 15%
    04:00 +26°C° 0 mm 1 mps 709 mmHg 16%
    05:00 +28°C° 0 mm 2 mps 710 mmHg 14%
    06:00 +29°C° 0 mm 2 mps 711 mmHg 13%
    07:00 +31°C° 0 mm 2 mps 711 mmHg 11%
    08:00 +35°C° 0 mm 3 mps 712 mmHg 10%
    09:00 +38°C° 0 mm 4 mps 712 mmHg 8%
    10:00 +42°C° 0 mm 5 mps 713 mmHg 7%
    11:00 +43°C° 0 mm 5 mps 712 mmHg 6%
    12:00 +46°C° 0 mm 5 mps 712 mmHg 5%
    13:00 +47°C° 0 mm 5 mps 711 mmHg 4%
    14:00 +47°C° 0 mm 5 mps 711 mmHg 4%
    15:00 +47°C° 0 mm 5 mps 710 mmHg 3%
    16:00 +47°C° 0 mm 5 mps 710 mmHg 3%
    17:00 +43°C° 0 mm 4 mps 710 mmHg 4%
    18:00 +40°C° 0 mm 4 mps 709 mmHg 5%
    19:00 +37°C° 0 mm 4 mps 709 mmHg 6%
    20:00 +36°C° 0 mm 3 mps 710 mmHg 6%
    21:00 +35°C° 0 mm 3 mps 711 mmHg 7%
    22:00 +34°C° 0 mm 3 mps 711 mmHg 8%
    23:00 +32°C° 0 mm 5 mps 711 mmHg 10%

    5 April, Sunday

    Time Temperature Precipitation Wind Pressure Humidity
    00:00 +30°C° 0 mm 7 mps 711 mmHg 12%
    01:00 +28°C° 0 mm 9 mps 711 mmHg 14%
    02:00 +27°C° 0 mm 9 mps 712 mmHg 20%
    03:00 +26°C° 0 mm 8 mps 712 mmHg 26%
    04:00 +23°C° 0 mm 7 mps 712 mmHg 32%
    05:00 +23°C° 0 mm 8 mps 713 mmHg 33%
    06:00 +23°C° 0 mm 9 mps 714 mmHg 34%
    07:00 +23°C° 0 mm 10 mps 714 mmHg 36%
    08:00 +26°C° 0 mm 9 mps 715 mmHg 30%
    09:00 +29°C° 0 mm 9 mps 715 mmHg 25%
    10:00 +32°C° 0 mm 8 mps 716 mmHg 20%
    11:00 +34°C° 0 mm 8 mps 715 mmHg 17%
    12:00 +35°C° 0 mm 8 mps 715 mmHg 15%
    13:00 +38°C° 0 mm 7 mps 714 mmHg 12%
    14:00 +38°C° 0 mm 7 mps 713 mmHg 11%
    15:00 +39°C° 0 mm 7 mps 713 mmHg 11%
    16:00 +39°C° 0 mm 7 mps 712 mmHg 10%
    17:00 +36°C° 0 mm 7 mps 713 mmHg 12%
    18:00 +34°C° 0 mm 6 mps 713 mmHg 13%
    19:00 +32°C° 0 mm 6 mps 713 mmHg 15%
    20:00 +29°C° 0 mm 6 mps 713 mmHg 17%
    21:00 +28°C° 0 mm 7 mps 714 mmHg 19%
    22:00 +27°C° 0 mm 8 mps 714 mmHg 21%
    23:00 +24°C° 0 mm 7 mps 714 mmHg 24%

    6 April, Monday

    Time Temperature Precipitation Wind Pressure Humidity
    00:00 +23°C° 0 mm 7 mps 713 mmHg 27%
    01:00 +22°C° 0 mm 7 mps 713 mmHg 29%
    02:00 +21°C° 0 mm 7 mps 713 mmHg 31%
    03:00 +21°C° 0 mm 7 mps 713 mmHg 32%
    04:00 +20°C° 0 mm 7 mps 713 mmHg 34%
    05:00 +20°C° 0 mm 7 mps 714 mmHg 33%
    06:00 +20°C° 0 mm 7 mps 714 mmHg 33%
    07:00 +21°C° 0 mm 7 mps 715 mmHg 32%
    08:00 +23°C° 0 mm 7 mps 715 mmHg 27%
    09:00 +27°C° 0 mm 7 mps 715 mmHg 23%
    10:00 +30°C° 0 mm 6 mps 715 mmHg 18%
    11:00 +33°C° 0 mm 5 mps 715 mmHg 16%
    12:00 +35°C° 0 mm 5 mps 714 mmHg 13%
    13:00 +37°C° 0 mm 4 mps 714 mmHg 11%
    14:00 +38°C° 0 mm 4 mps 713 mmHg 11%
    15:00 +39°C° 0 mm 5 mps 713 mmHg 10%
    16:00 +40°C° 0 mm 5 mps 712 mmHg 10%
    17:00 +36°C° 0 mm 6 mps 712 mmHg 12%
    18:00 +34°C° 0 mm 7 mps 712 mmHg 15%
    19:00 +30°C° 0 mm 7 mps 712 mmHg 17%
    20:00 +29°C° 0 mm 7 mps 713 mmHg 17%
    21:00 +28°C° 0 mm 7 mps 713 mmHg 18%
    22:00 +27°C° 0 mm 7 mps 714 mmHg 18%
    23:00 +26°C° 0 mm 7 mps 714 mmHg 20%
    Show more